Regional Weather Roundup
Issued by NWS

Home | Current Version | Previous Version | Text Only | Print | Product List | Glossary Off
Versions: 1 2 3 4 5 6 7 8 9 10 11 12 13 14 15 16 17 18 19 20 21 22 23 24 25 26 27 28 29 30 31 32 33 34 35 36 37 38 39 40 41 42 43 44 45 46 47 48 49 50

000
ASUS43 KLSX 262357
RWRMO

WEATHER SUMMARY FOR MISSOURI
NATIONAL WEATHER SERVICE SPRINGFIELD MO
600 PM CST SUN FEB 26 2017

NOTE: "FAIR" INDICATES FEW OR NO CLOUDS BELOW 12,000 FEET WITH NO
       SIGNIFICANT WEATHER AND/OR OBSTRUCTIONS TO VISIBILITY.
       CURRENT SKY AND/OR WEATHER CONDITIONS ARE NOT AVAILABLE FOR
       CHILLICOTHE AND FARMINGTON.

MOZ001>031-035>038-043-044-053-054-270100-
...NORTHERN AND WESTERN MISSOURI...

CITY           SKY/WX    TMP DP  RH WIND       PRES   REMARKS
KANSAS CTY INT PTCLDY    43  25  49 S9        29.96R
6HR MIN TEMP:  43; 6HR MAX TEMP:  52;

LEE`S SUMMIT   CLEAR     45  34  65 S10       29.98R
6HR MIN TEMP:  45; 6HR MAX TEMP:  50;

ST JOSEPH      CLEAR     47  24  40 SW6       29.95R
6HR MIN TEMP:  47; 6HR MAX TEMP:  53;

CHILLICOTHE      N/A     47  23  38 S8        29.98R
6HR MIN TEMP:  46; 6HR MAX TEMP:  52;


$$
MOZ066>068-077>081-088>096-101>105-270100-
...SOUTHWEST MISSOURI...

CITY           SKY/WX    TMP DP  RH WIND       PRES   REMARKS
SPRINGFIELD    CLOUDY    42  33  70 SE10      29.97S
6HR MIN TEMP:  36; 6HR MAX TEMP:  42; 6HR PCP:  0.05;

JOPLIN         CLOUDY    43  34  70 E7        29.97R
6HR MIN TEMP:  40; 6HR MAX TEMP:  44; 6HR PCP:  0.01;

BRANSON        CLOUDY    46  25  42 E8        30.00R

$$
MOZ032>034-039>042-045>050-055>058-069>072-270100-
...CENTRAL MISSOURI...

CITY           SKY/WX    TMP DP  RH WIND       PRES   REMARKS
COLUMBIA       NOT AVBL
JEFFERSON CITY CLOUDY    41  35  79 S8        30.05R
6HR MIN TEMP:  41; 6HR MAX TEMP:  48;

SEDALIA        CLOUDY    42  35  76 S10       30.02R
6HR MIN TEMP:  42; 6HR MAX TEMP:  48;

WARRENSBURG    CLOUDY    43  34  70 SE10      30.00R

$$
MOZ051-052-059>065-270100-
...EAST CENTRAL MISSOURI...

CITY           SKY/WX    TMP DP  RH WIND       PRES   REMARKS
ST LOUIS INTL  CLOUDY    44  31  60 S12       30.08S
6HR MIN TEMP:  43; 6HR MAX TEMP:  50;


$$
MOZ072>076-082>087-097>100-106>115-270100-
...SOUTH CENTRAL AND SOUTHEAST MISSOURI...

CITY           SKY/WX    TMP DP  RH WIND       PRES   REMARKS
CAPE GIRARDEAU CLOUDY    47  26  44 SE6       30.09F
6HR MIN TEMP:  47; 6HR MAX TEMP:  51;

POPLAR BLUFF   MOCLDY    49  28  44 NE6       30.06F
6HR MIN TEMP:  47; 6HR MAX TEMP:  53;

WEST PLAINS    CLOUDY    48  22  35 SE9       30.04R
6HR MIN TEMP:  45; 6HR MAX TEMP:  49;


$$


USA.gov is the U.S. government's official web portal to all federal, state and local government web resources and services.